Tracking 29892 objects as of 21-Nov-2024
HD Live streaming from Space Station
objects crossing your sky now

TITAN 3C TRANSTAGE DEB

Track TITAN 3C TRANSTAGE DEB now!


NORAD ID: 38705
Int'l Code: 1968-081AF
Perigee: 34,151.4 km
Apogee: 36,436.6 km
Inclination: 1.9 °
Period: 1,410.6 minutes
Semi major axis: 41665 km
RCS: 0.003 m2 (small)
Launch date: September 26, 1968
Source: United States (US)
Launch site: AIR FORCE EASTERN TEST RANGE (AFETR)

Note: This is SATELLITE DEBRIS
Your satellite tracking list
Your tracking list is empty




NASA's NSSDC Master Catalog

Two Line Element Set (TLE):
1 38705U 68081AF  24325.08690882 -.00000132  00000-0  00000+0 0  9999
2 38705   1.8968  55.2623 0274228 357.7634   1.5819  1.02081159 69242
Source of the keplerian elements: AFSPC